VBA RPLL-WAAA

Flight info

Callsign VBA
Flight time 2h 51m
Altitude 33000
Route DCT TAALA A461 ZAM DCT PAL DCT NIVEK
Aircraft B738/M-SCDFIU/C

Departure

Time 2026-04-20 18:45
Airport Ninoy Aquino International Airport (RPLL)

Arrival

Time 2026-04-20 21:36
Airport Sultan Hasanuddin International Airport (WAAA)
Time Latitude Longitude Altitude Speed Heading
2026-04-20 18:43 14.51364 121.02855 79 ft 0 kts 240°
2026-04-20 18:44 14.51353 121.02836 78 ft 18 kts 240°
2026-04-20 18:44 14.51161 121.02490 68 ft 92 kts 240°
2026-04-20 18:45 14.50726 121.01708 48 ft 156 kts 240°
2026-04-20 18:45 14.50109 121.00603 313 ft 184 kts 240°
2026-04-20 18:45 14.49479 120.99487 1075 ft 183 kts 239°
2026-04-20 18:45 14.48734 120.98418 1643 ft 190 kts 221°
2026-04-20 18:46 14.47608 120.97675 2072 ft 195 kts 197°
2026-04-20 18:46 14.46275 120.97442 2572 ft 195 kts 175°
2026-04-20 18:46 14.44910 120.97576 2979 ft 204 kts 171°
2026-04-20 18:46 14.43409 120.97724 3211 ft 227 kts 173°
2026-04-20 18:47 14.41769 120.97834 3627 ft 241 kts 174°
2026-04-20 18:47 14.40023 120.97941 4067 ft 255 kts 172°
2026-04-20 18:47 14.38240 120.98159 4510 ft 267 kts 169°
2026-04-20 18:47 14.36780 120.98389 4944 ft 273 kts 168°
2026-04-20 18:48 14.35135 120.98646 5490 ft 278 kts 169°
2026-04-20 18:48 14.33208 120.98923 6155 ft 281 kts 170°
2026-04-20 18:48 14.31242 120.99186 6817 ft 285 kts 170°
2026-04-20 18:48 14.29275 120.99442 7491 ft 287 kts 170°
2026-04-20 18:49 14.27288 120.99697 8141 ft 291 kts 170°
2026-04-20 18:49 14.25263 120.99959 8863 ft 292 kts 169°
2026-04-20 18:49 14.23232 121.00222 9554 ft 295 kts 169°
2026-04-20 18:49 14.21195 121.00487 10233 ft 298 kts 170°
2026-04-20 18:50 14.19067 121.00768 10611 ft 314 kts 170°
2026-04-20 18:50 14.16846 121.01060 10966 ft 329 kts 170°
2026-04-20 18:50 14.14539 121.01361 11277 ft 344 kts 171°
2026-04-20 18:50 14.12107 121.01678 11572 ft 360 kts 171°
2026-04-20 18:51 14.09572 121.02007 12020 ft 369 kts 171°
2026-04-20 18:51 14.06967 121.02344 12584 ft 375 kts 171°
2026-04-20 18:51 14.04373 121.02641 13167 ft 380 kts 174°
2026-04-20 18:51 14.01726 121.02797 13782 ft 384 kts 177°
2026-04-20 18:52 13.99030 121.02841 14430 ft 387 kts 179°
2026-04-20 18:52 13.96332 121.02836 15050 ft 390 kts 179°
2026-04-20 18:52 13.93581 121.02821 15690 ft 392 kts 180°
2026-04-20 18:52 13.90835 121.02814 16279 ft 395 kts 179°
2026-04-20 18:53 13.88059 121.02818 16824 ft 398 kts 179°
2026-04-20 18:53 13.85287 121.02833 17369 ft 401 kts 179°
2026-04-20 18:53 13.82494 121.02856 17919 ft 404 kts 179°
2026-04-20 18:53 13.79667 121.02882 18459 ft 406 kts 179°
2026-04-20 18:54 13.76821 121.02911 19026 ft 407 kts 179°
2026-04-20 18:54 13.73971 121.02940 19538 ft 410 kts 179°
2026-04-20 18:54 13.71118 121.02970 20101 ft 411 kts 179°
2026-04-20 18:54 13.68246 121.03000 20566 ft 415 kts 179°
2026-04-20 18:55 13.65303 121.03030 21050 ft 417 kts 179°
2026-04-20 18:55 13.62399 121.03059 21567 ft 419 kts 179°
2026-04-20 18:55 13.59457 121.03088 22001 ft 422 kts 179°
2026-04-20 18:55 13.56519 121.03117 22500 ft 424 kts 179°
2026-04-20 18:56 13.53573 121.03146 22927 ft 427 kts 180°
2026-04-20 18:56 13.50590 121.03176 23402 ft 429 kts 180°
2026-04-20 18:56 13.47570 121.03205 23837 ft 432 kts 180°
2026-04-20 18:56 13.44553 121.03235 24253 ft 436 kts 180°
2026-04-20 18:57 13.41490 121.03265 24709 ft 438 kts 180°
2026-04-20 18:57 13.38434 121.03296 25156 ft 440 kts 180°
2026-04-20 18:57 13.35369 121.03326 25554 ft 443 kts 180°
2026-04-20 18:57 13.32268 121.03356 25992 ft 445 kts 180°
2026-04-20 18:58 13.29190 121.03387 26445 ft 447 kts 180°
2026-04-20 18:58 13.26031 121.03418 26847 ft 449 kts 180°
2026-04-20 18:58 13.22926 121.03449 27253 ft 452 kts 180°
2026-04-20 18:58 13.19722 121.03481 27581 ft 456 kts 180°
2026-04-20 18:59 13.16538 121.03512 27997 ft 458 kts 180°
2026-04-20 18:59 13.13362 121.03544 28390 ft 459 kts 180°
2026-04-20 18:59 13.10185 121.03575 28940 ft 457 kts 180°
2026-04-20 18:59 13.07004 121.03608 29533 ft 454 kts 180°
2026-04-20 19:00 13.03834 121.03640 30102 ft 451 kts 180°
2026-04-20 19:00 13.00715 121.03671 30660 ft 447 kts 181°
2026-04-20 19:00 12.97617 121.03702 31185 ft 445 kts 181°
2026-04-20 19:00 12.94511 121.03733 31677 ft 443 kts 181°
2026-04-20 19:01 12.91418 121.03764 32184 ft 440 kts 181°
2026-04-20 19:01 12.88341 121.03793 32642 ft 438 kts 181°
2026-04-20 19:01 12.85278 121.03822 33016 ft 438 kts 181°
2026-04-20 19:01 12.82192 121.03851 33027 ft 442 kts 181°
2026-04-20 19:02 12.76048 121.03912 33000 ft 436 kts 181°
2026-04-20 19:02 12.69935 121.03973 33003 ft 439 kts 181°
2026-04-20 19:03 12.63800 121.04034 32983 ft 438 kts 181°
2026-04-20 19:03 12.57711 121.04094 32976 ft 438 kts 181°
2026-04-20 19:04 12.51599 121.04154 32955 ft 437 kts 181°
2026-04-20 19:04 12.45515 121.04215 32942 ft 436 kts 181°
2026-04-20 19:05 12.39384 121.04277 32944 ft 438 kts 180°
2026-04-20 19:05 12.33269 121.04778 32936 ft 440 kts 173°
2026-04-20 19:06 12.27200 121.05833 32927 ft 440 kts 171°
2026-04-20 19:06 12.21135 121.07027 32913 ft 441 kts 171°
2026-04-20 19:07 12.15118 121.08212 32901 ft 439 kts 171°
2026-04-20 19:07 12.09083 121.09380 32891 ft 438 kts 171°
2026-04-20 19:08 12.00065 121.11096 32886 ft 439 kts 171°
2026-04-20 19:09 11.94034 121.12238 32887 ft 439 kts 171°
2026-04-20 19:09 11.87970 121.13383 32887 ft 440 kts 171°
2026-04-20 19:10 11.81912 121.14526 32885 ft 440 kts 171°
2026-04-20 19:10 11.75859 121.15668 32886 ft 440 kts 171°
2026-04-20 19:11 11.69796 121.16811 32886 ft 441 kts 171°
2026-04-20 19:11 11.63730 121.17954 32886 ft 439 kts 171°
2026-04-20 19:12 11.57688 121.19093 32884 ft 440 kts 171°
2026-04-20 19:12 11.51621 121.20236 32883 ft 439 kts 171°
2026-04-20 19:13 11.45608 121.21368 32884 ft 439 kts 171°
2026-04-20 19:13 11.39595 121.22499 32885 ft 440 kts 171°
2026-04-20 19:14 11.33535 121.23638 32885 ft 440 kts 171°
2026-04-20 19:14 11.27471 121.24778 32886 ft 441 kts 171°
2026-04-20 19:15 11.21428 121.25912 32886 ft 441 kts 171°
2026-04-20 19:15 11.15320 121.27061 32883 ft 440 kts 171°
2026-04-20 19:16 11.09299 121.28191 32886 ft 439 kts 171°
2026-04-20 19:16 11.03238 121.29329 32883 ft 439 kts 171°
2026-04-20 19:17 10.97212 121.30463 32884 ft 439 kts 171°
2026-04-20 19:17 10.91148 121.31621 32883 ft 441 kts 170°
2026-04-20 19:18 10.85106 121.32780 32885 ft 442 kts 170°
2026-04-20 19:18 10.79061 121.33939 32882 ft 441 kts 170°
2026-04-20 19:19 10.72971 121.35104 32884 ft 441 kts 170°
2026-04-20 19:19 10.66935 121.36259 32882 ft 441 kts 170°
2026-04-20 19:20 10.60883 121.37415 32878 ft 440 kts 171°
2026-04-20 19:20 10.54842 121.38568 32873 ft 441 kts 170°
2026-04-20 19:21 10.48791 121.39719 32868 ft 441 kts 170°
2026-04-20 19:21 10.42726 121.40852 32868 ft 441 kts 171°
2026-04-20 19:22 10.36660 121.41979 32864 ft 442 kts 171°
2026-04-20 19:22 10.30580 121.43110 32866 ft 442 kts 171°
2026-04-20 19:23 10.24510 121.44241 32864 ft 441 kts 171°
2026-04-20 19:23 10.18475 121.45364 32870 ft 441 kts 171°
2026-04-20 19:24 10.12403 121.46494 32870 ft 441 kts 171°
2026-04-20 19:24 10.06336 121.47623 32872 ft 441 kts 171°
2026-04-20 19:25 10.00259 121.48754 32874 ft 441 kts 170°
2026-04-20 19:25 9.94174 121.49886 32880 ft 442 kts 170°
2026-04-20 19:26 9.88062 121.51022 32885 ft 443 kts 170°
2026-04-20 19:26 9.81950 121.52159 32884 ft 443 kts 170°
2026-04-20 19:27 9.75896 121.53285 32884 ft 441 kts 170°
2026-04-20 19:27 9.69802 121.54417 32884 ft 442 kts 170°
2026-04-20 19:28 9.63755 121.55539 32884 ft 442 kts 170°
2026-04-20 19:28 9.57668 121.56669 32884 ft 443 kts 170°
2026-04-20 19:29 9.51571 121.57800 32884 ft 444 kts 170°
2026-04-20 19:29 9.45439 121.58936 32884 ft 443 kts 170°
2026-04-20 19:30 9.39364 121.60062 32884 ft 444 kts 170°
2026-04-20 19:30 9.33219 121.61201 32884 ft 444 kts 170°
2026-04-20 19:31 9.27124 121.62329 32884 ft 443 kts 170°
2026-04-20 19:31 9.21033 121.63457 32884 ft 444 kts 170°
2026-04-20 19:32 9.14871 121.64597 32884 ft 444 kts 170°
2026-04-20 19:32 9.08745 121.65730 32884 ft 445 kts 170°
2026-04-20 19:33 9.02627 121.66862 32884 ft 446 kts 170°
2026-04-20 19:33 8.96478 121.67999 32884 ft 445 kts 170°
2026-04-20 19:34 8.90374 121.69128 32884 ft 446 kts 170°
2026-04-20 19:34 8.84232 121.70263 32884 ft 446 kts 170°
2026-04-20 19:35 8.78067 121.71402 32884 ft 446 kts 170°
2026-04-20 19:35 8.71963 121.72529 32883 ft 446 kts 170°
2026-04-20 19:36 8.65809 121.73664 32881 ft 446 kts 170°
2026-04-20 19:36 8.59707 121.74790 32876 ft 447 kts 170°
2026-04-20 19:37 8.53551 121.75925 32870 ft 448 kts 170°
2026-04-20 19:37 8.47393 121.77061 32866 ft 448 kts 170°
2026-04-20 19:38 8.41237 121.78196 32863 ft 448 kts 170°
2026-04-20 19:38 8.35111 121.79324 32863 ft 447 kts 170°
2026-04-20 19:39 8.28955 121.80459 32864 ft 446 kts 170°
2026-04-20 19:39 8.22814 121.81589 32866 ft 448 kts 170°
2026-04-20 19:40 8.16655 121.82724 32866 ft 449 kts 170°
2026-04-20 19:40 8.10485 121.83859 32867 ft 449 kts 170°
2026-04-20 19:41 8.04295 121.84998 32870 ft 449 kts 170°
2026-04-20 19:41 7.98121 121.86133 32868 ft 448 kts 170°
2026-04-20 19:42 7.91977 121.87263 32869 ft 448 kts 170°
2026-04-20 19:42 7.85783 121.88401 32881 ft 448 kts 170°
2026-04-20 19:43 7.79621 121.89534 32886 ft 449 kts 170°
2026-04-20 19:43 7.73420 121.90673 32887 ft 450 kts 170°
2026-04-20 19:44 7.67226 121.91811 32887 ft 450 kts 170°
2026-04-20 19:44 7.61035 121.92947 32893 ft 450 kts 170°
2026-04-20 19:45 7.54815 121.94089 32891 ft 450 kts 170°
2026-04-20 19:45 7.48624 121.95225 32887 ft 449 kts 170°
2026-04-20 19:46 7.42424 121.96362 32892 ft 450 kts 170°
2026-04-20 19:46 7.36219 121.97500 32902 ft 451 kts 170°
2026-04-20 19:47 7.29992 121.98642 32912 ft 450 kts 170°
2026-04-20 19:47 7.23824 121.99775 32923 ft 450 kts 170°
2026-04-20 19:48 7.17629 122.00913 32925 ft 450 kts 170°
2026-04-20 19:48 7.11411 122.02056 32924 ft 451 kts 170°
2026-04-20 19:49 7.05166 122.03202 32922 ft 453 kts 170°
2026-04-20 19:49 6.98911 122.04349 32919 ft 452 kts 170°
2026-04-20 19:50 6.92667 122.05083 32908 ft 451 kts 181°
2026-04-20 19:50 6.86460 122.04122 32906 ft 452 kts 194°
2026-04-20 19:51 6.80361 122.02440 32896 ft 452 kts 196°
2026-04-20 19:51 6.74314 122.00648 32892 ft 450 kts 196°
2026-04-20 19:52 6.68279 121.98882 32906 ft 451 kts 196°
2026-04-20 19:52 6.62206 121.97141 32921 ft 451 kts 195°
2026-04-20 19:53 6.56147 121.95429 32932 ft 452 kts 195°
2026-04-20 19:53 6.50059 121.93722 32936 ft 453 kts 195°
2026-04-20 19:54 6.43975 121.92022 32924 ft 452 kts 195°
2026-04-20 19:54 6.37869 121.90318 32909 ft 452 kts 195°
2026-04-20 19:55 6.31822 121.88630 32889 ft 451 kts 195°
2026-04-20 19:55 6.25742 121.86935 32879 ft 451 kts 195°
2026-04-20 19:56 6.20687 121.85525 32873 ft 451 kts 195°
2026-04-20 19:56 6.13600 121.83549 32873 ft 453 kts 195°
2026-04-20 19:57 6.07510 121.81851 32872 ft 453 kts 195°
2026-04-20 19:57 6.01381 121.80144 32870 ft 452 kts 195°
2026-04-20 19:58 5.95324 121.78455 32871 ft 451 kts 195°
2026-04-20 19:58 5.89233 121.76759 32878 ft 450 kts 195°
2026-04-20 19:59 5.83171 121.75070 32882 ft 452 kts 195°
2026-04-20 19:59 5.77077 121.73373 32883 ft 454 kts 195°
2026-04-20 20:00 5.70953 121.71669 32883 ft 455 kts 195°
2026-04-20 20:00 5.64858 121.69973 32884 ft 454 kts 195°
2026-04-20 20:01 5.58722 121.68266 32884 ft 454 kts 195°
2026-04-20 20:01 5.52580 121.66558 32884 ft 455 kts 195°
2026-04-20 20:02 5.46442 121.64850 32884 ft 456 kts 195°
2026-04-20 20:02 5.40296 121.63141 32881 ft 456 kts 195°
2026-04-20 20:03 5.34140 121.61430 32878 ft 456 kts 195°
2026-04-20 20:03 5.27943 121.59708 32872 ft 457 kts 195°
2026-04-20 20:04 5.21762 121.57990 32868 ft 457 kts 195°
2026-04-20 20:04 5.15591 121.56275 32867 ft 457 kts 195°
2026-04-20 20:05 5.09444 121.54568 32867 ft 457 kts 195°
2026-04-20 20:05 5.03290 121.52859 32865 ft 457 kts 195°
2026-04-20 20:06 4.97143 121.51152 32864 ft 456 kts 195°
2026-04-20 20:06 4.90962 121.49438 32863 ft 457 kts 195°
2026-04-20 20:07 4.84807 121.47729 32863 ft 458 kts 195°
2026-04-20 20:07 4.78608 121.46009 32864 ft 458 kts 195°
2026-04-20 20:08 4.72459 121.44303 32864 ft 458 kts 195°
2026-04-20 20:08 4.66300 121.42594 32863 ft 456 kts 195°
2026-04-20 20:09 4.60156 121.40889 32864 ft 456 kts 195°
2026-04-20 20:09 4.53992 121.39180 32863 ft 458 kts 195°
2026-04-20 20:10 4.47812 121.37467 32863 ft 459 kts 195°
2026-04-20 20:10 4.41676 121.35766 32863 ft 458 kts 195°
2026-04-20 20:11 4.35481 121.34049 32864 ft 458 kts 195°
2026-04-20 20:11 4.29267 121.32327 32863 ft 459 kts 194°
2026-04-20 20:12 4.23096 121.30618 32863 ft 459 kts 195°
2026-04-20 20:12 4.16914 121.28907 32863 ft 459 kts 195°
2026-04-20 20:13 4.07620 121.26333 32863 ft 458 kts 194°
2026-04-20 20:13 4.01448 121.24624 32863 ft 459 kts 194°
2026-04-20 20:14 3.95247 121.22907 32856 ft 461 kts 194°
2026-04-20 20:14 3.89032 121.21187 32848 ft 461 kts 194°
2026-04-20 20:15 3.82826 121.19469 32845 ft 460 kts 194°
2026-04-20 20:15 3.76626 121.17754 32843 ft 459 kts 194°
2026-04-20 20:16 3.70467 121.16052 32843 ft 460 kts 194°
2026-04-20 20:16 3.64276 121.14339 32843 ft 461 kts 194°
2026-04-20 20:17 3.58060 121.12618 32853 ft 460 kts 194°
2026-04-20 20:17 3.51867 121.10905 32863 ft 460 kts 194°
2026-04-20 20:18 3.45636 121.09183 32864 ft 461 kts 194°
2026-04-20 20:18 3.39452 121.07474 32864 ft 462 kts 194°
2026-04-20 20:19 3.33214 121.05750 32863 ft 461 kts 194°
2026-04-20 20:19 3.27001 121.04032 32864 ft 461 kts 194°
2026-04-20 20:20 3.20799 121.02317 32863 ft 461 kts 194°
2026-04-20 20:20 3.14614 121.00608 32864 ft 462 kts 194°
2026-04-20 20:21 3.08360 120.98880 32864 ft 462 kts 194°
2026-04-20 20:21 3.02162 120.97167 32863 ft 462 kts 194°
2026-04-20 20:22 2.95939 120.95448 32864 ft 463 kts 194°
2026-04-20 20:22 2.89713 120.93729 32864 ft 463 kts 194°
2026-04-20 20:23 2.83427 120.91993 32864 ft 463 kts 194°
2026-04-20 20:23 2.77202 120.90273 32864 ft 462 kts 194°
2026-04-20 20:24 2.70973 120.88553 32864 ft 462 kts 194°
2026-04-20 20:24 2.64711 120.86824 32863 ft 461 kts 194°
2026-04-20 20:25 2.58424 120.85091 32862 ft 462 kts 194°
2026-04-20 20:25 2.52146 120.83359 32862 ft 463 kts 194°
2026-04-20 20:26 2.45858 120.81622 32852 ft 462 kts 194°
2026-04-20 20:26 2.39613 120.79897 32843 ft 463 kts 194°
2026-04-20 20:27 2.33367 120.78172 32843 ft 462 kts 194°
2026-04-20 20:27 2.27132 120.76451 32843 ft 462 kts 194°
2026-04-20 20:28 2.20890 120.74729 32842 ft 462 kts 194°
2026-04-20 20:28 2.14620 120.73000 32842 ft 463 kts 194°
2026-04-20 20:29 2.08379 120.71279 32843 ft 463 kts 194°
2026-04-20 20:29 2.02111 120.69550 32842 ft 463 kts 194°
2026-04-20 20:30 1.95870 120.67830 32848 ft 463 kts 194°
2026-04-20 20:30 1.89634 120.66110 32850 ft 462 kts 194°
2026-04-20 20:31 1.83414 120.64394 32851 ft 463 kts 194°
2026-04-20 20:31 1.77189 120.62678 32854 ft 463 kts 194°
2026-04-20 20:32 1.70948 120.60958 32861 ft 463 kts 194°
2026-04-20 20:32 1.64665 120.59226 32863 ft 463 kts 194°
2026-04-20 20:33 1.58458 120.57516 32864 ft 463 kts 194°
2026-04-20 20:33 1.52198 120.55791 32871 ft 464 kts 194°
2026-04-20 20:34 1.45950 120.54068 32870 ft 463 kts 194°
2026-04-20 20:34 1.39715 120.52348 32868 ft 463 kts 194°
2026-04-20 20:35 1.33448 120.50622 32873 ft 464 kts 194°
2026-04-20 20:35 1.27204 120.48901 32874 ft 464 kts 194°
2026-04-20 20:36 1.20942 120.47176 32875 ft 464 kts 194°
2026-04-20 20:36 1.14682 120.45451 32869 ft 463 kts 194°
2026-04-20 20:37 1.08433 120.43730 32874 ft 462 kts 194°
2026-04-20 20:37 1.02172 120.42006 32867 ft 462 kts 194°
2026-04-20 20:38 0.95982 120.40301 32870 ft 463 kts 194°
2026-04-20 20:38 0.89711 120.38573 32872 ft 463 kts 194°
2026-04-20 20:39 0.83505 120.36861 32868 ft 463 kts 194°
2026-04-20 20:39 0.77205 120.35125 32867 ft 463 kts 194°
2026-04-20 20:40 0.70964 120.33408 32879 ft 463 kts 194°
2026-04-20 20:40 0.64727 120.31690 32895 ft 463 kts 194°
2026-04-20 20:41 0.58491 120.29971 32917 ft 464 kts 194°
2026-04-20 20:41 0.52224 120.28245 32945 ft 463 kts 194°
2026-04-20 20:42 0.45987 120.26529 32956 ft 464 kts 194°
2026-04-20 20:42 0.39743 120.24809 32932 ft 464 kts 194°
2026-04-20 20:43 0.33463 120.23079 32902 ft 464 kts 194°
2026-04-20 20:43 0.27209 120.21356 32881 ft 464 kts 194°
2026-04-20 20:44 0.20956 120.19634 32866 ft 464 kts 194°
2026-04-20 20:44 0.14672 120.17904 32869 ft 465 kts 194°
2026-04-20 20:45 0.08415 120.16182 32870 ft 465 kts 194°
2026-04-20 20:45 0.02136 120.14453 32864 ft 466 kts 194°
2026-04-20 20:46 -0.04130 120.12727 32877 ft 465 kts 194°
2026-04-20 20:46 -0.10415 120.10996 32892 ft 465 kts 194°
2026-04-20 20:47 -0.16731 120.09256 32895 ft 465 kts 194°
2026-04-20 20:47 -0.22977 120.07536 32888 ft 466 kts 194°
2026-04-20 20:48 -0.29273 120.05803 32894 ft 466 kts 194°
2026-04-20 20:48 -0.35531 120.04080 32902 ft 467 kts 194°
2026-04-20 20:49 -0.41833 120.02345 32917 ft 468 kts 194°
2026-04-20 20:49 -0.48117 120.00615 32919 ft 467 kts 194°
2026-04-20 20:50 -0.54439 119.98873 32942 ft 467 kts 194°
2026-04-20 20:50 -0.60744 119.97137 32957 ft 466 kts 194°
2026-04-20 20:51 -0.67021 119.95409 32973 ft 468 kts 194°
2026-04-20 20:51 -0.73327 119.93673 32978 ft 468 kts 194°
2026-04-20 20:52 -0.79688 119.91921 32985 ft 469 kts 194°
2026-04-20 20:52 -0.85971 119.90093 32989 ft 469 kts 198°
2026-04-20 20:53 -0.91934 119.87315 33004 ft 469 kts 210°
2026-04-20 20:53 -0.97466 119.83823 33025 ft 468 kts 213°
2026-04-20 20:54 -1.02890 119.80137 33052 ft 469 kts 214°
2026-04-20 20:54 -1.08343 119.76419 33074 ft 469 kts 214°
2026-04-20 20:55 -1.13777 119.72752 33072 ft 470 kts 213°
2026-04-20 20:55 -1.19240 119.69093 33049 ft 469 kts 213°
2026-04-20 20:56 -1.24665 119.65475 33016 ft 467 kts 213°
2026-04-20 20:56 -1.30084 119.61871 32983 ft 467 kts 213°
2026-04-20 20:57 -1.35494 119.58272 32951 ft 467 kts 213°
2026-04-20 20:57 -1.40908 119.54672 32912 ft 468 kts 213°
2026-04-20 20:58 -1.46355 119.51048 32916 ft 468 kts 213°
2026-04-20 20:58 -1.51786 119.47437 32905 ft 468 kts 213°
2026-04-20 20:59 -1.57194 119.43839 32899 ft 466 kts 213°
2026-04-20 20:59 -1.62606 119.40241 32894 ft 465 kts 213°
2026-04-20 21:00 -1.68036 119.36628 32889 ft 466 kts 213°
2026-04-20 21:00 -1.73474 119.33012 32879 ft 467 kts 213°
2026-04-20 21:01 -1.78889 119.29409 32885 ft 466 kts 213°
2026-04-20 21:01 -1.84313 119.25800 32857 ft 467 kts 213°
2026-04-20 21:02 -1.89702 119.22214 32883 ft 464 kts 213°
2026-04-20 21:02 -1.95083 119.18632 32876 ft 463 kts 213°
2026-04-20 21:03 -2.00472 119.15047 32863 ft 463 kts 213°
2026-04-20 21:03 -2.05858 119.11462 32855 ft 462 kts 213°
2026-04-20 21:04 -2.11274 119.07858 32871 ft 464 kts 213°
2026-04-20 21:04 -2.16654 119.04275 32858 ft 463 kts 213°
2026-04-20 21:05 -2.22042 119.00688 32856 ft 463 kts 213°
2026-04-20 21:05 -2.27409 118.97115 32859 ft 463 kts 213°
2026-04-20 21:06 -2.32781 118.93538 32861 ft 464 kts 213°
2026-04-20 21:06 -2.38206 118.89925 32861 ft 464 kts 213°
2026-04-20 21:07 -2.43602 118.86330 32862 ft 466 kts 213°
2026-04-20 21:07 -2.48999 118.82735 32863 ft 466 kts 213°
2026-04-20 21:08 -2.54412 118.79130 32863 ft 465 kts 213°
2026-04-20 21:08 -2.59846 118.75562 32869 ft 464 kts 210°
2026-04-20 21:09 -2.65746 118.73081 32875 ft 462 kts 188°
2026-04-20 21:09 -2.68968 118.72816 32883 ft 460 kts 177°
2026-04-20 21:09 -2.72151 118.73119 32885 ft 458 kts 168°
2026-04-20 21:10 -2.78345 118.74554 32876 ft 456 kts 162°
2026-04-20 21:10 -2.84503 118.76347 32891 ft 455 kts 161°
2026-04-20 21:11 -2.90546 118.78171 32903 ft 454 kts 161°
2026-04-20 21:11 -2.96657 118.79996 32911 ft 454 kts 161°
2026-04-20 21:12 -3.02738 118.81791 32915 ft 454 kts 161°
2026-04-20 21:12 -3.08843 118.83579 32916 ft 454 kts 161°
2026-04-20 21:13 -3.14928 118.85356 32922 ft 455 kts 161°
2026-04-20 21:13 -3.21037 118.87138 32902 ft 455 kts 161°
2026-04-20 21:14 -3.27142 118.88918 32897 ft 454 kts 161°
2026-04-20 21:14 -3.33203 118.90685 32494 ft 448 kts 161°
2026-04-20 21:15 -3.36193 118.91555 32028 ft 443 kts 161°
2026-04-20 21:15 -3.39141 118.92413 31417 ft 442 kts 161°
2026-04-20 21:15 -3.42111 118.93278 30772 ft 441 kts 161°
2026-04-20 21:15 -3.45037 118.94131 30242 ft 438 kts 161°
2026-04-20 21:16 -3.47977 118.94989 29656 ft 436 kts 161°
2026-04-20 21:16 -3.50882 118.95836 29063 ft 434 kts 161°
2026-04-20 21:16 -3.53776 118.96680 28476 ft 432 kts 161°
2026-04-20 21:16 -3.56646 118.97519 27894 ft 430 kts 161°
2026-04-20 21:17 -3.59543 118.98366 27297 ft 428 kts 162°
2026-04-20 21:17 -3.62408 118.99204 26705 ft 427 kts 162°
2026-04-20 21:17 -3.65258 119.00037 26112 ft 425 kts 162°
2026-04-20 21:17 -3.68093 119.00867 25520 ft 423 kts 162°
2026-04-20 21:18 -3.70888 119.01684 24936 ft 420 kts 162°
2026-04-20 21:18 -3.73689 119.02502 24342 ft 418 kts 162°
2026-04-20 21:18 -3.76496 119.03323 23750 ft 416 kts 162°
2026-04-20 21:18 -3.79282 119.04137 23159 ft 414 kts 163°
2026-04-20 21:19 -3.82042 119.04943 22573 ft 412 kts 163°
2026-04-20 21:19 -3.84770 119.05740 22004 ft 409 kts 163°
2026-04-20 21:19 -3.87507 119.06539 21432 ft 407 kts 163°
2026-04-20 21:20 -3.92943 119.08127 20262 ft 403 kts 163°
2026-04-20 21:20 -3.95633 119.08913 19674 ft 402 kts 163°
2026-04-20 21:20 -3.98289 119.09689 19085 ft 400 kts 163°
2026-04-20 21:20 -4.00463 119.10324 18578 ft 392 kts 163°
2026-04-20 21:21 -4.03042 119.11078 18047 ft 377 kts 163°
2026-04-20 21:21 -4.05551 119.11812 17533 ft 370 kts 163°
2026-04-20 21:21 -4.08021 119.12535 16959 ft 370 kts 163°
2026-04-20 21:21 -4.10484 119.13257 16414 ft 368 kts 163°
2026-04-20 21:22 -4.12927 119.13972 15881 ft 366 kts 163°
2026-04-20 21:22 -4.15381 119.14690 15336 ft 364 kts 163°
2026-04-20 21:22 -4.17804 119.15398 14804 ft 362 kts 163°
2026-04-20 21:22 -4.20222 119.16106 14266 ft 361 kts 163°
2026-04-20 21:23 -4.22642 119.16813 13778 ft 357 kts 163°
2026-04-20 21:23 -4.25002 119.17503 13548 ft 345 kts 163°
2026-04-20 21:23 -4.27267 119.18164 13429 ft 331 kts 163°
2026-04-20 21:23 -4.29435 119.18798 13311 ft 319 kts 163°
2026-04-20 21:24 -4.31557 119.19419 13194 ft 322 kts 163°
2026-04-20 21:24 -4.33799 119.20076 13060 ft 341 kts 163°
2026-04-20 21:24 -4.36075 119.20742 12876 ft 342 kts 163°
2026-04-20 21:24 -4.38354 119.21408 12443 ft 340 kts 163°
2026-04-20 21:25 -4.40635 119.22075 11928 ft 339 kts 163°
2026-04-20 21:25 -4.42909 119.22739 11423 ft 339 kts 163°
2026-04-20 21:25 -4.45176 119.23402 10900 ft 338 kts 163°
2026-04-20 21:25 -4.47427 119.24060 10464 ft 334 kts 163°
2026-04-20 21:26 -4.49639 119.24707 10258 ft 323 kts 163°
2026-04-20 21:26 -4.51738 119.25321 10150 ft 310 kts 162°
2026-04-20 21:26 -4.53806 119.25925 9946 ft 302 kts 163°
2026-04-20 21:26 -4.55802 119.26511 9552 ft 301 kts 162°
2026-04-20 21:27 -4.57822 119.27103 9175 ft 299 kts 162°
2026-04-20 21:27 -4.59826 119.27690 8782 ft 298 kts 162°
2026-04-20 21:27 -4.61814 119.28271 8417 ft 295 kts 162°
2026-04-20 21:27 -4.63782 119.28848 8055 ft 294 kts 162°
2026-04-20 21:28 -4.65728 119.29417 7692 ft 292 kts 162°
2026-04-20 21:28 -4.67686 119.29990 7322 ft 290 kts 162°
2026-04-20 21:28 -4.69625 119.30558 6956 ft 288 kts 162°
2026-04-20 21:28 -4.71560 119.31124 6598 ft 287 kts 162°
2026-04-20 21:29 -4.73469 119.31683 6239 ft 285 kts 162°
2026-04-20 21:29 -4.75372 119.32240 5886 ft 284 kts 162°
2026-04-20 21:29 -4.77284 119.32800 5525 ft 283 kts 162°
2026-04-20 21:29 -4.79178 119.33355 5162 ft 281 kts 162°
2026-04-20 21:30 -4.81037 119.33900 4818 ft 280 kts 162°
2026-04-20 21:30 -4.82924 119.34453 4467 ft 278 kts 162°
2026-04-20 21:30 -4.84776 119.34995 4230 ft 272 kts 162°
2026-04-20 21:30 -4.86554 119.35514 4150 ft 260 kts 162°
2026-04-20 21:31 -4.88255 119.36015 4083 ft 248 kts 160°
2026-04-20 21:31 -4.89782 119.36677 4099 ft 231 kts 143°
2026-04-20 21:31 -4.90932 119.37700 4111 ft 213 kts 130°
2026-04-20 21:31 -4.91858 119.38799 4024 ft 203 kts 127°
2026-04-20 21:32 -4.92766 119.39890 3757 ft 204 kts 128°
2026-04-20 21:32 -4.93695 119.40966 3481 ft 204 kts 129°
2026-04-20 21:32 -4.94637 119.42049 3205 ft 205 kts 128°
2026-04-20 21:32 -4.95571 119.43131 2924 ft 206 kts 128°
2026-04-20 21:33 -4.96510 119.44221 2655 ft 206 kts 129°
2026-04-20 21:33 -4.97458 119.45319 2379 ft 207 kts 129°
2026-04-20 21:33 -4.98377 119.46381 2106 ft 197 kts 129°
2026-04-20 21:33 -4.99258 119.47401 1847 ft 187 kts 129°
2026-04-20 21:34 -5.00076 119.48349 1616 ft 175 kts 129°
2026-04-20 21:34 -5.00833 119.49225 1446 ft 157 kts 129°
2026-04-20 21:34 -5.01536 119.50040 1193 ft 146 kts 129°
2026-04-20 21:34 -5.02208 119.50819 1007 ft 149 kts 129°
2026-04-20 21:35 -5.02885 119.51603 814 ft 149 kts 130°
2026-04-20 21:35 -5.03566 119.52392 620 ft 149 kts 130°
2026-04-20 21:35 -5.04247 119.53181 428 ft 148 kts 130°
2026-04-20 21:35 -5.04931 119.53961 235 ft 147 kts 130°
2026-04-20 21:36 -5.05594 119.54742 64 ft 144 kts 130°
2026-04-20 21:36 -5.06221 119.55473 53 ft 124 kts 132°
2026-04-20 21:36 -5.06667 119.55991 48 ft 61 kts 130°
2026-04-20 21:36 -5.06811 119.56155 43 ft 18 kts 127°
2026-04-20 21:37 -5.06829 119.56225 41 ft 0 kts 98°